Location: La Tine
(46.4708°N, 7.0525°E)
Time: 11:42:03
(UTC+00:00)

Cosmos 1674 - Pass Details

Date: 18 September 2020
Orbit: 494 x 517 km, 82.5° (Epoch: 24 October)

Event Time Altitude Azimuth Distance (km) Brightness Sun altitude
Rises 19:02:56 0° 359° (N) 2,653 6.6 -15.4°
Reaches altitude 10° 19:05:13 10° 9° (N) 1,761 5.5 -15.7°
Maximum altitude 19:08:46 34° 75° (ENE) 880 3.4 -16.3°
Enters shadow 19:09:10 33° 89° (E) 896 3.4 -16.4°
